DAL2528 KFLL-KCVG

Flight info

Callsign DAL2528
Flight time 2h 21m
Altitude 37000
Route AGERS1 DUCEN Q87 VIYAP Q69 GURGE/N0449F380 Q93 FISHO/N0446F370 Q93 QUIWE/N0447F380 BURGG CUBIM JAKIE7
Aircraft B738/M-SDGIJ1LRWY/SB1

Departure

Time 2026-05-04 13:28
Airport Fort Lauderdale Hollywood International Airport (KFLL)

Arrival

Time 2026-05-04 15:49
Airport Cincinnati Northern Kentucky International Airport (KCVG)
Time Latitude Longitude Altitude Speed Heading
2026-05-04 13:13 26.07343 -80.14252 12 ft 0 kts 270°
2026-05-04 13:19 26.07343 -80.14246 12 ft 2 kts 270°
2026-05-04 13:20 26.07342 -80.14230 12 ft 2 kts 281°
2026-05-04 13:20 26.07338 -80.14214 12 ft 2 kts 289°
2026-05-04 13:20 26.07332 -80.14198 12 ft 2 kts 298°
2026-05-04 13:20 26.07324 -80.14184 12 ft 2 kts 307°
2026-05-04 13:21 26.07320 -80.14178 12 ft 0 kts 311°
2026-05-04 13:21 26.07333 -80.14189 12 ft 3 kts 341°
2026-05-04 13:21 26.07367 -80.14190 12 ft 7 kts 360°
2026-05-04 13:21 26.07409 -80.14190 12 ft 3 kts
2026-05-04 13:22 26.07417 -80.14190 12 ft 0 kts
2026-05-04 13:23 26.07418 -80.14190 12 ft 0 kts 360°
2026-05-04 13:23 26.07426 -80.14190 12 ft 1 kts 360°
2026-05-04 13:24 26.07440 -80.14191 12 ft 3 kts 351°
2026-05-04 13:24 26.07503 -80.14220 12 ft 13 kts 331°
2026-05-04 13:24 26.07556 -80.14299 12 ft 15 kts 277°
2026-05-04 13:25 26.07560 -80.14706 12 ft 28 kts 269°
2026-05-04 13:25 26.07561 -80.14932 12 ft 32 kts 271°
2026-05-04 13:25 26.07563 -80.15200 12 ft 35 kts 272°
2026-05-04 13:25 26.07564 -80.15465 12 ft 33 kts 270°
2026-05-04 13:26 26.07564 -80.15726 12 ft 35 kts 271°
2026-05-04 13:26 26.07569 -80.15997 12 ft 34 kts 271°
2026-05-04 13:26 26.07566 -80.16262 12 ft 35 kts 270°
2026-05-04 13:26 26.07567 -80.16483 12 ft 18 kts 269°
2026-05-04 13:27 26.07634 -80.16567 12 ft 17 kts 355°
2026-05-04 13:27 26.07695 -80.16501 12 ft 6 kts 88°
2026-05-04 13:27 26.07695 -80.16387 12 ft 49 kts 90°
2026-05-04 13:27 26.07690 -80.15700 12 ft 126 kts 90°
2026-05-04 13:28 26.07678 -80.14490 51 ft 181 kts 91°
2026-05-04 13:28 26.07656 -80.13105 911 ft 175 kts 86°
2026-05-04 13:28 26.07719 -80.11832 1784 ft 170 kts 83°
2026-05-04 13:28 26.07816 -80.10468 2259 ft 184 kts 84°
2026-05-04 13:29 26.08075 -80.09084 2815 ft 191 kts 68°
2026-05-04 13:29 26.08716 -80.07730 3218 ft 207 kts 51°
2026-05-04 13:29 26.09909 -80.06743 3615 ft 225 kts 23°
2026-05-04 13:29 26.11448 -80.06126 4090 ft 245 kts 18°
2026-05-04 13:30 26.13115 -80.05502 4715 ft 259 kts 18°
2026-05-04 13:30 26.14878 -80.04924 5348 ft 270 kts
2026-05-04 13:30 26.16738 -80.04922 6145 ft 272 kts 346°
2026-05-04 13:30 26.18544 -80.05569 7010 ft 272 kts 336°
2026-05-04 13:31 26.20272 -80.06371 7816 ft 274 kts 331°
2026-05-04 13:31 26.21847 -80.07562 8599 ft 275 kts 315°
2026-05-04 13:31 26.23074 -80.09178 9415 ft 274 kts 298°
2026-05-04 13:31 26.23860 -80.11058 10306 ft 271 kts 289°
2026-05-04 13:32 26.24524 -80.13040 10829 ft 284 kts 288°
2026-05-04 13:32 26.25316 -80.15113 11374 ft 297 kts 297°
2026-05-04 13:32 26.26720 -80.16872 11788 ft 319 kts 320°
2026-05-04 13:32 26.28709 -80.18130 12309 ft 335 kts 330°
2026-05-04 13:33 26.30829 -80.19192 13094 ft 338 kts 331°
2026-05-04 13:33 26.32993 -80.20264 13811 ft 343 kts 330°
2026-05-04 13:33 26.35177 -80.21385 14546 ft 348 kts 331°
2026-05-04 13:33 26.37456 -80.22328 15301 ft 355 kts 337°
2026-05-04 13:34 26.39894 -80.22989 16013 ft 364 kts 343°
2026-05-04 13:34 26.42400 -80.23388 16732 ft 370 kts 347°
2026-05-04 13:34 26.44970 -80.23663 17408 ft 375 kts 348°
2026-05-04 13:34 26.47591 -80.23895 18010 ft 381 kts 348°
2026-05-04 13:35 26.50222 -80.24122 18762 ft 381 kts 348°
2026-05-04 13:35 26.55525 -80.24625 20092 ft 386 kts 348°
2026-05-04 13:35 26.58189 -80.24932 20863 ft 384 kts 346°
2026-05-04 13:36 26.60850 -80.25337 21405 ft 388 kts 344°
2026-05-04 13:36 26.63523 -80.25798 22076 ft 388 kts 344°
2026-05-04 13:36 26.66221 -80.26278 22572 ft 393 kts 344°
2026-05-04 13:36 26.68891 -80.26791 23315 ft 389 kts 341°
2026-05-04 13:37 26.71526 -80.27528 23820 ft 390 kts 336°
2026-05-04 13:37 26.74087 -80.28460 24459 ft 387 kts 334°
2026-05-04 13:37 26.76637 -80.29496 24903 ft 391 kts 332°
2026-05-04 13:37 26.78321 -80.30208 25293 ft 392 kts 332°
2026-05-04 13:38 26.81737 -80.31664 25988 ft 395 kts 332°
2026-05-04 13:38 26.84319 -80.32761 26531 ft 396 kts 331°
2026-05-04 13:38 26.86896 -80.33850 27041 ft 398 kts 332°
2026-05-04 13:38 26.89494 -80.34944 27454 ft 402 kts 331°
2026-05-04 13:39 26.92109 -80.36043 27851 ft 406 kts 332°
2026-05-04 13:39 26.94778 -80.37156 28450 ft 405 kts 332°
2026-05-04 13:39 26.97434 -80.38248 28768 ft 411 kts 332°
2026-05-04 13:39 27.00123 -80.39338 29293 ft 412 kts 332°
2026-05-04 13:40 27.02831 -80.40424 29747 ft 414 kts 332°
2026-05-04 13:40 27.05568 -80.41522 30062 ft 419 kts 332°
2026-05-04 13:40 27.08281 -80.42610 30544 ft 419 kts 332°
2026-05-04 13:40 27.11069 -80.43749 30879 ft 422 kts 332°
2026-05-04 13:41 27.13787 -80.44910 31505 ft 418 kts 331°
2026-05-04 13:41 27.16487 -80.46098 32192 ft 412 kts 330°
2026-05-04 13:41 27.19155 -80.47289 32787 ft 409 kts 330°
2026-05-04 13:42 27.24403 -80.49638 33758 ft 406 kts 330°
2026-05-04 13:42 27.27065 -80.50826 34219 ft 406 kts 330°
2026-05-04 13:42 27.29679 -80.51987 34616 ft 406 kts 330°
2026-05-04 13:42 27.32326 -80.53163 34901 ft 409 kts 330°
2026-05-04 13:43 27.34967 -80.54335 35358 ft 407 kts 330°
2026-05-04 13:43 27.37620 -80.55502 35803 ft 407 kts 330°
2026-05-04 13:43 27.40275 -80.56614 35978 ft 412 kts 331°
2026-05-04 13:43 27.42962 -80.57684 36356 ft 412 kts 332°
2026-05-04 13:44 27.45697 -80.58746 36727 ft 412 kts 332°
2026-05-04 13:44 27.48416 -80.59806 36929 ft 415 kts 332°
2026-05-04 13:44 27.51134 -80.60870 37064 ft 416 kts 332°
2026-05-04 13:44 27.53873 -80.61945 37062 ft 416 kts 332°
2026-05-04 13:45 27.59288 -80.64084 37064 ft 412 kts 332°
2026-05-04 13:45 27.64678 -80.66236 37066 ft 412 kts 331°
2026-05-04 13:46 27.70108 -80.68412 37067 ft 411 kts 332°
2026-05-04 13:46 27.75471 -80.70554 37069 ft 408 kts 332°
2026-05-04 13:47 27.80845 -80.72706 37066 ft 409 kts 331°
2026-05-04 13:47 27.86238 -80.74862 37070 ft 411 kts 332°
2026-05-04 13:48 27.91626 -80.77016 37074 ft 411 kts 332°
2026-05-04 13:48 27.97007 -80.79171 37075 ft 411 kts 332°
2026-05-04 13:49 28.02414 -80.81344 37075 ft 412 kts 332°
2026-05-04 13:49 28.07780 -80.83493 37075 ft 411 kts 332°
2026-05-04 13:50 28.13156 -80.85656 37075 ft 408 kts 332°
2026-05-04 13:50 28.18494 -80.87808 37079 ft 407 kts 332°
2026-05-04 13:51 28.23835 -80.89966 37083 ft 407 kts 331°
2026-05-04 13:51 28.29182 -80.92133 37079 ft 407 kts 332°
2026-05-04 13:52 28.37188 -80.95364 37083 ft 406 kts 332°
2026-05-04 13:53 28.42509 -80.97522 37088 ft 406 kts 332°
2026-05-04 13:53 28.47801 -80.99666 37091 ft 404 kts 332°
2026-05-04 13:54 28.55738 -81.02888 37091 ft 405 kts 332°
2026-05-04 13:55 28.63679 -81.06121 37095 ft 402 kts 332°
2026-05-04 13:55 28.71604 -81.09343 37093 ft 403 kts 332°
2026-05-04 13:56 28.76856 -81.11484 37096 ft 401 kts 332°
2026-05-04 13:57 28.84723 -81.14696 37097 ft 402 kts 332°
2026-05-04 13:58 28.95265 -81.19008 37099 ft 401 kts 332°
2026-05-04 13:58 29.03127 -81.22228 37104 ft 400 kts 332°
2026-05-04 13:59 29.08385 -81.24389 37110 ft 400 kts 332°
2026-05-04 14:00 29.16254 -81.27618 37110 ft 399 kts 332°
2026-05-04 14:00 29.24119 -81.30827 37112 ft 400 kts 333°
2026-05-04 14:01 29.29587 -81.32382 37112 ft 412 kts 343°
2026-05-04 14:02 29.38238 -81.33089 37112 ft 417 kts 348°
2026-05-04 14:02 29.44046 -81.33356 37113 ft 418 kts 348°
2026-05-04 14:03 29.49866 -81.33652 37113 ft 418 kts 348°
2026-05-04 14:03 29.55686 -81.33971 37118 ft 418 kts 347°
2026-05-04 14:04 29.64363 -81.34476 37116 ft 416 kts 347°
2026-05-04 14:04 29.70176 -81.34815 37117 ft 415 kts 347°
2026-05-04 14:05 29.78842 -81.35334 37120 ft 417 kts 347°
2026-05-04 14:06 29.84627 -81.35680 37116 ft 416 kts 347°
2026-05-04 14:06 29.90417 -81.36021 37118 ft 416 kts 347°
2026-05-04 14:07 29.96204 -81.36361 37123 ft 416 kts 347°
2026-05-04 14:07 30.01989 -81.36704 37122 ft 414 kts 347°
2026-05-04 14:08 30.07730 -81.37047 37132 ft 413 kts 347°
2026-05-04 14:08 30.13505 -81.37392 37130 ft 417 kts 347°
2026-05-04 14:09 30.22193 -81.37907 37123 ft 417 kts 348°
2026-05-04 14:10 30.30836 -81.38419 37127 ft 415 kts 347°
2026-05-04 14:10 30.36602 -81.38769 37131 ft 414 kts 347°
2026-05-04 14:11 30.42331 -81.39112 37124 ft 413 kts 347°
2026-05-04 14:11 30.50980 -81.39628 37132 ft 416 kts 347°
2026-05-04 14:12 30.56787 -81.39914 37130 ft 415 kts 348°
2026-05-04 14:13 30.65449 -81.40371 37138 ft 416 kts 348°
2026-05-04 14:13 30.71187 -81.40674 37136 ft 415 kts 348°
2026-05-04 14:14 30.76969 -81.40984 37133 ft 415 kts 348°
2026-05-04 14:14 30.85623 -81.41441 37129 ft 415 kts 348°
2026-05-04 14:15 30.97170 -81.42046 37134 ft 413 kts 348°
2026-05-04 14:16 31.05837 -81.42517 37148 ft 417 kts 348°
2026-05-04 14:17 31.14514 -81.42985 37146 ft 415 kts 348°
2026-05-04 14:18 31.23204 -81.43444 37137 ft 414 kts 348°
2026-05-04 14:19 31.34827 -81.43748 37147 ft 422 kts 351°
2026-05-04 14:19 31.40663 -81.43777 37139 ft 420 kts 351°
2026-05-04 14:20 31.46561 -81.43533 37138 ft 430 kts 358°
2026-05-04 14:20 31.52482 -81.41969 36887 ft 442 kts
2026-05-04 14:21 31.58307 -81.39634 37134 ft 450 kts 11°
2026-05-04 14:21 31.61262 -81.38380 37130 ft 449 kts 11°
2026-05-04 14:21 31.67117 -81.35882 37136 ft 446 kts 11°
2026-05-04 14:22 31.72963 -81.33433 37147 ft 447 kts 11°
2026-05-04 14:22 31.78818 -81.31008 37138 ft 445 kts 11°
2026-05-04 14:23 31.87630 -81.27367 37155 ft 446 kts 11°
2026-05-04 14:24 31.93458 -81.25015 37138 ft 441 kts
2026-05-04 14:24 31.99406 -81.23512 37143 ft 432 kts 358°
2026-05-04 14:25 32.05343 -81.23078 37134 ft 427 kts 353°
2026-05-04 14:25 32.14274 -81.22793 37141 ft 429 kts 354°
2026-05-04 14:26 32.20203 -81.22546 37142 ft 429 kts 354°
2026-05-04 14:26 32.26165 -81.22259 37139 ft 426 kts 354°
2026-05-04 14:27 32.32122 -81.21960 37143 ft 429 kts 354°
2026-05-04 14:27 32.38067 -81.21658 37136 ft 429 kts 354°
2026-05-04 14:28 32.44036 -81.21375 37143 ft 427 kts 353°
2026-05-04 14:28 32.49929 -81.21610 37149 ft 421 kts 345°
2026-05-04 14:29 32.61280 -81.24259 37136 ft 414 kts 340°
2026-05-04 14:30 32.66920 -81.25741 37147 ft 415 kts 340°
2026-05-04 14:31 32.75370 -81.27895 37141 ft 414 kts 340°
2026-05-04 14:32 32.86658 -81.30740 37142 ft 415 kts 340°
2026-05-04 14:32 32.92347 -81.32174 37139 ft 417 kts 341°
2026-05-04 14:33 32.97999 -81.33601 37139 ft 416 kts 341°
2026-05-04 14:33 33.03698 -81.35043 37143 ft 416 kts 341°
2026-05-04 14:34 33.09359 -81.36476 37139 ft 416 kts 341°
2026-05-04 14:34 33.15018 -81.37914 37137 ft 418 kts 341°
2026-05-04 14:35 33.20706 -81.39356 37137 ft 417 kts 341°
2026-05-04 14:35 33.26369 -81.40792 37140 ft 416 kts 341°
2026-05-04 14:36 33.32156 -81.41930 37138 ft 422 kts 346°
2026-05-04 14:36 33.37971 -81.42678 37137 ft 422 kts 347°
2026-05-04 14:37 33.43850 -81.43385 37130 ft 423 kts 347°
2026-05-04 14:37 33.49662 -81.44113 37131 ft 423 kts 346°
2026-05-04 14:38 33.55537 -81.44883 37127 ft 422 kts 346°
2026-05-04 14:38 33.61367 -81.45661 37130 ft 422 kts 346°
2026-05-04 14:39 33.67201 -81.46446 37127 ft 423 kts 346°
2026-05-04 14:39 33.73053 -81.47231 37127 ft 422 kts 346°
2026-05-04 14:40 33.81788 -81.48408 37126 ft 422 kts 346°
2026-05-04 14:40 33.87611 -81.49195 37123 ft 423 kts 347°
2026-05-04 14:41 33.93453 -81.50049 37122 ft 421 kts 344°
2026-05-04 14:42 34.04586 -81.53756 37121 ft 412 kts 335°
2026-05-04 14:42 34.10029 -81.55925 37120 ft 412 kts 335°
2026-05-04 14:43 34.15489 -81.58080 37121 ft 412 kts 335°
2026-05-04 14:43 34.20941 -81.60212 37125 ft 411 kts 335°
2026-05-04 14:44 34.26387 -81.62339 37125 ft 411 kts 336°
2026-05-04 14:44 34.31800 -81.64455 37119 ft 410 kts 335°
2026-05-04 14:45 34.37223 -81.66570 37121 ft 410 kts 335°
2026-05-04 14:45 34.42651 -81.68694 37120 ft 410 kts 335°
2026-05-04 14:46 34.48064 -81.70821 37111 ft 409 kts 335°
2026-05-04 14:46 34.53476 -81.72947 37108 ft 410 kts 335°
2026-05-04 14:47 34.58924 -81.75091 37103 ft 410 kts 335°
2026-05-04 14:47 34.64326 -81.77218 37097 ft 409 kts 335°
2026-05-04 14:48 34.69744 -81.79356 37100 ft 410 kts 335°
2026-05-04 14:48 34.75153 -81.81486 37097 ft 409 kts 335°
2026-05-04 14:49 34.80560 -81.83624 37104 ft 409 kts 335°
2026-05-04 14:49 34.85988 -81.85775 37097 ft 408 kts 335°
2026-05-04 14:50 34.91397 -81.87921 37098 ft 410 kts 335°
2026-05-04 14:50 34.96818 -81.90075 37100 ft 408 kts 335°
2026-05-04 14:51 35.02227 -81.92232 37099 ft 410 kts 334°
2026-05-04 14:51 35.07457 -81.94817 37093 ft 403 kts 329°
2026-05-04 14:52 35.12493 -81.97749 37091 ft 403 kts 328°
2026-05-04 14:52 35.17556 -82.00726 37090 ft 402 kts 328°
2026-05-04 14:53 35.22592 -82.03650 37095 ft 402 kts 328°
2026-05-04 14:53 35.27671 -82.06578 37094 ft 402 kts 328°
2026-05-04 14:54 35.32717 -82.09481 37096 ft 402 kts 329°
2026-05-04 14:54 35.37772 -82.12393 37100 ft 401 kts 329°
2026-05-04 14:55 35.42817 -82.15301 37100 ft 402 kts 329°
2026-05-04 14:55 35.47876 -82.18220 37108 ft 401 kts 329°
2026-05-04 14:56 35.52937 -82.21141 37110 ft 400 kts 329°
2026-05-04 14:56 35.58006 -82.24077 37114 ft 401 kts 329°
2026-05-04 14:57 35.63014 -82.26979 37119 ft 401 kts 329°
2026-05-04 14:57 35.68075 -82.29913 37127 ft 400 kts 329°
2026-05-04 14:58 35.73072 -82.32813 37123 ft 399 kts 329°
2026-05-04 14:58 35.77269 -82.35255 37123 ft 400 kts 329°
2026-05-04 14:59 35.83126 -82.38669 37114 ft 399 kts 329°
2026-05-04 15:00 35.90646 -82.43058 37114 ft 398 kts 329°
2026-05-04 15:00 35.95638 -82.45975 37111 ft 398 kts 329°
2026-05-04 15:01 36.03131 -82.50366 37113 ft 397 kts 329°
2026-05-04 15:01 36.08098 -82.53286 37106 ft 397 kts 329°
2026-05-04 15:02 36.13091 -82.56216 37105 ft 397 kts 329°
2026-05-04 15:02 36.18063 -82.59141 37105 ft 398 kts 329°
2026-05-04 15:03 36.23060 -82.62085 37099 ft 397 kts 329°
2026-05-04 15:03 36.28043 -82.65027 37099 ft 397 kts 328°
2026-05-04 15:04 36.33001 -82.67954 37095 ft 396 kts 328°
2026-05-04 15:04 36.37991 -82.70906 37092 ft 397 kts 328°
2026-05-04 15:05 36.42926 -82.73832 37086 ft 395 kts 328°
2026-05-04 15:05 36.47903 -82.76782 37087 ft 397 kts 328°
2026-05-04 15:06 36.52866 -82.79735 37083 ft 395 kts 328°
2026-05-04 15:07 36.60291 -82.84162 37070 ft 395 kts 328°
2026-05-04 15:07 36.65240 -82.87112 37061 ft 395 kts 328°
2026-05-04 15:08 36.70202 -82.90073 37053 ft 394 kts 328°
2026-05-04 15:08 36.75138 -82.93024 37053 ft 394 kts 328°
2026-05-04 15:09 36.80073 -82.95978 37050 ft 394 kts 328°
2026-05-04 15:09 36.85032 -82.98953 37049 ft 395 kts 328°
2026-05-04 15:10 36.92492 -83.03297 37036 ft 397 kts 330°
2026-05-04 15:11 37.00082 -83.07453 37039 ft 397 kts 330°
2026-05-04 15:11 37.05117 -83.10223 37039 ft 396 kts 330°
2026-05-04 15:12 37.10136 -83.13005 37027 ft 394 kts 330°
2026-05-04 15:12 37.15166 -83.15807 37027 ft 396 kts 330°
2026-05-04 15:13 37.20177 -83.18602 37031 ft 396 kts 330°
2026-05-04 15:13 37.25210 -83.21410 37030 ft 395 kts 329°
2026-05-04 15:14 37.30206 -83.24210 37024 ft 396 kts 330°
2026-05-04 15:14 37.35220 -83.27018 37023 ft 394 kts 330°
2026-05-04 15:15 37.40247 -83.29841 37026 ft 394 kts 330°
2026-05-04 15:15 37.45226 -83.32636 37030 ft 395 kts 330°
2026-05-04 15:16 37.52734 -83.36858 36940 ft 392 kts 330°
2026-05-04 15:16 37.57668 -83.39606 36126 ft 385 kts 330°
2026-05-04 15:17 37.60088 -83.40950 35563 ft 386 kts 330°
2026-05-04 15:17 37.65041 -83.43716 34120 ft 392 kts 329°
2026-05-04 15:17 37.67507 -83.45093 33528 ft 390 kts 330°
2026-05-04 15:18 37.69997 -83.46477 33009 ft 386 kts 330°
2026-05-04 15:18 37.72418 -83.47823 32482 ft 383 kts 330°
2026-05-04 15:18 37.74858 -83.49183 31960 ft 379 kts 331°
2026-05-04 15:19 37.79631 -83.51846 30904 ft 374 kts 331°
2026-05-04 15:19 37.81974 -83.53159 30383 ft 371 kts 331°
2026-05-04 15:19 37.86555 -83.55957 29347 ft 360 kts 324°
2026-05-04 15:20 37.88573 -83.57793 28827 ft 353 kts 315°
2026-05-04 15:20 37.90304 -83.59928 28306 ft 348 kts 310°
2026-05-04 15:20 37.91894 -83.62186 27801 ft 344 kts 309°
2026-05-04 15:20 37.93435 -83.64492 27303 ft 340 kts 308°
2026-05-04 15:21 37.94946 -83.66783 26805 ft 338 kts 307°
2026-05-04 15:21 37.96443 -83.69038 26308 ft 336 kts 307°
2026-05-04 15:21 37.99435 -83.73511 25308 ft 331 kts 308°
2026-05-04 15:22 38.00919 -83.75717 24831 ft 328 kts 308°
2026-05-04 15:22 38.02385 -83.77900 24349 ft 326 kts 308°
2026-05-04 15:22 38.05278 -83.82240 23406 ft 320 kts 308°
2026-05-04 15:23 38.06720 -83.84390 22935 ft 318 kts 308°
2026-05-04 15:23 38.08136 -83.86491 22468 ft 316 kts 308°
2026-05-04 15:23 38.09563 -83.88609 21999 ft 314 kts 308°
2026-05-04 15:23 38.10972 -83.90694 21531 ft 312 kts 309°
2026-05-04 15:24 38.14148 -83.94403 20990 ft 318 kts 322°
2026-05-04 15:24 38.18057 -83.97330 20965 ft 329 kts 327°
2026-05-04 15:25 38.20081 -83.98734 20963 ft 328 kts 327°
2026-05-04 15:25 38.22086 -84.00129 20971 ft 329 kts 327°
2026-05-04 15:25 38.24086 -84.01537 20969 ft 328 kts 327°
2026-05-04 15:26 38.28074 -84.04385 20654 ft 329 kts 327°
2026-05-04 15:26 38.30053 -84.05808 20324 ft 323 kts 326°
2026-05-04 15:26 38.33894 -84.08595 19421 ft 316 kts 325°
2026-05-04 15:27 38.35797 -84.09984 18967 ft 313 kts 326°
2026-05-04 15:27 38.39523 -84.12650 18075 ft 307 kts 326°
2026-05-04 15:28 38.43218 -84.15302 17183 ft 302 kts 326°
2026-05-04 15:28 38.45036 -84.16613 16815 ft 297 kts 326°
2026-05-04 15:28 38.48565 -84.19168 15995 ft 292 kts 325°
2026-05-04 15:29 38.50343 -84.20456 15569 ft 289 kts 325°
2026-05-04 15:30 38.57212 -84.25442 13887 ft 281 kts 324°
2026-05-04 15:30 38.62253 -84.29096 12656 ft 275 kts 324°
2026-05-04 15:31 38.65552 -84.31515 12021 ft 272 kts 323°
2026-05-04 15:31 38.67182 -84.32818 12025 ft 285 kts 322°
2026-05-04 15:32 38.72181 -84.36899 11335 ft 280 kts 322°
2026-05-04 15:32 38.75428 -84.39561 10514 ft 275 kts 322°
2026-05-04 15:33 38.78568 -84.42081 10113 ft 256 kts 321°
2026-05-04 15:34 38.82957 -84.45628 9193 ft 245 kts 321°
2026-05-04 15:34 38.84383 -84.46787 8911 ft 241 kts 321°
2026-05-04 15:34 38.87075 -84.48972 8732 ft 218 kts 320°
2026-05-04 15:35 38.89510 -84.50958 8521 ft 198 kts 320°
2026-05-04 15:35 38.90697 -84.51939 8296 ft 212 kts 320°
2026-05-04 15:35 38.91967 -84.52985 8032 ft 216 kts 320°
2026-05-04 15:36 38.94843 -84.54092 7547 ft 231 kts 354°
2026-05-04 15:36 38.96447 -84.53874 7286 ft 231 kts 358°
2026-05-04 15:36 38.98044 -84.53656 7029 ft 229 kts 356°
2026-05-04 15:37 38.99630 -84.53491 6778 ft 225 kts 354°
2026-05-04 15:37 39.01178 -84.53434 6539 ft 220 kts 351°
2026-05-04 15:37 39.02690 -84.53446 6300 ft 218 kts 350°
2026-05-04 15:37 39.04210 -84.53458 6064 ft 221 kts 351°
2026-05-04 15:38 39.05767 -84.53464 6020 ft 228 kts 351°
2026-05-04 15:38 39.07394 -84.53471 6001 ft 233 kts 352°
2026-05-04 15:38 39.09005 -84.53471 6000 ft 232 kts 352°
2026-05-04 15:38 39.10637 -84.53470 5999 ft 232 kts 352°
2026-05-04 15:39 39.12240 -84.53470 6002 ft 233 kts 351°
2026-05-04 15:39 39.13879 -84.53472 6006 ft 233 kts 351°
2026-05-04 15:39 39.17110 -84.53473 6004 ft 233 kts 351°
2026-05-04 15:40 39.18740 -84.53475 6002 ft 234 kts 351°
2026-05-04 15:40 39.20386 -84.53477 6001 ft 233 kts 351°
2026-05-04 15:40 39.22002 -84.53479 6001 ft 235 kts 351°
2026-05-04 15:40 39.23636 -84.53481 5998 ft 234 kts 351°
2026-05-04 15:41 39.25283 -84.53484 5928 ft 237 kts 352°
2026-05-04 15:41 39.26922 -84.53490 5723 ft 233 kts 351°
2026-05-04 15:41 39.28536 -84.53500 5524 ft 229 kts 351°
2026-05-04 15:41 39.30117 -84.53526 5327 ft 226 kts 346°
2026-05-04 15:42 39.31550 -84.54118 5129 ft 211 kts 315°
2026-05-04 15:42 39.32403 -84.55540 4933 ft 195 kts 282°
2026-05-04 15:42 39.32383 -84.57227 4738 ft 190 kts 248°
2026-05-04 15:42 39.31685 -84.58669 4556 ft 191 kts 235°
2026-05-04 15:43 39.30851 -84.60006 4353 ft 190 kts 234°
2026-05-04 15:43 39.30025 -84.61327 4155 ft 190 kts 234°
2026-05-04 15:43 39.29202 -84.62664 4014 ft 188 kts 234°
2026-05-04 15:43 39.28352 -84.63925 3992 ft 191 kts 222°
2026-05-04 15:44 39.27117 -84.64556 4006 ft 192 kts 193°
2026-05-04 15:44 39.25800 -84.64574 3993 ft 185 kts 188°
2026-05-04 15:44 39.24511 -84.64560 3995 ft 184 kts 189°
2026-05-04 15:44 39.23243 -84.64574 3994 ft 185 kts 189°
2026-05-04 15:45 39.21981 -84.64580 4002 ft 172 kts 189°
2026-05-04 15:45 39.20813 -84.64580 3855 ft 164 kts 190°
2026-05-04 15:45 39.19698 -84.64588 3649 ft 159 kts 190°
2026-05-04 15:45 39.18589 -84.64595 3433 ft 158 kts 191°
2026-05-04 15:46 39.17487 -84.64599 3213 ft 155 kts 190°
2026-05-04 15:46 39.16474 -84.64601 3040 ft 141 kts 190°
2026-05-04 15:46 39.15535 -84.64606 2813 ft 129 kts 190°
2026-05-04 15:46 39.14618 -84.64616 2684 ft 133 kts 191°
2026-05-04 15:47 39.13718 -84.64621 2448 ft 130 kts 188°
2026-05-04 15:47 39.12829 -84.64621 2306 ft 127 kts 189°
2026-05-04 15:47 39.11929 -84.64635 2166 ft 129 kts 187°
2026-05-04 15:47 39.11018 -84.64633 1964 ft 130 kts 186°
2026-05-04 15:48 39.10113 -84.64633 1800 ft 131 kts 184°
2026-05-04 15:48 39.09202 -84.64644 1626 ft 131 kts 185°
2026-05-04 15:48 39.07383 -84.64653 1293 ft 131 kts 184°
2026-05-04 15:49 39.06472 -84.64663 1070 ft 131 kts 184°
2026-05-04 15:49 39.05543 -84.64664 927 ft 135 kts 182°
2026-05-04 15:49 39.04682 -84.64674 893 ft 96 kts 180°
2026-05-04 15:49 39.04239 -84.64674 902 ft 38 kts 182°
2026-05-04 15:50 39.04040 -84.64699 899 ft 21 kts 205°
2026-05-04 15:50 39.03963 -84.64792 894 ft 10 kts 250°
2026-05-04 15:50 39.03987 -84.64882 891 ft 12 kts 340°
2026-05-04 15:50 39.04064 -84.64886 893 ft 11 kts
2026-05-04 15:51 39.04194 -84.64886 895 ft 21 kts
2026-05-04 15:51 39.04346 -84.64885 895 ft 21 kts
2026-05-04 15:51 39.04503 -84.64883 890 ft 24 kts
2026-05-04 15:51 39.04684 -84.64884 889 ft 23 kts
2026-05-04 15:52 39.04822 -84.64883 889 ft 14 kts 359°
2026-05-04 15:52 39.04874 -84.64944 889 ft 13 kts 279°
2026-05-04 15:52 39.04876 -84.65116 885 ft 20 kts 270°
2026-05-04 15:52 39.04876 -84.65276 882 ft 14 kts 270°
2026-05-04 15:53 39.04894 -84.65364 881 ft 8 kts 323°
2026-05-04 15:53 39.04936 -84.65373 882 ft 5 kts 359°
2026-05-04 15:53 39.04962 -84.65373 882 ft 1 kts
2026-05-04 15:53 39.04973 -84.65373 882 ft 0 kts